Location: Richterswil
(47.2055°N, 8.7071°E)
Time: 07:20:58
(UTC+00:00)

NOSS 3-1 (A) - Pass Details

Date: 07 June 2020
Orbit: 755 x 1458 km, 63.4° (Epoch: 16 June)

Event Time Altitude Azimuth Distance (km) Brightness Sun altitude
Rises 01:15:48 0° 319° (NW) 3,926 7.0 -15.6°
Reaches altitude 10° 01:18:19 10° 320° (NW) 3,059 6.4 -15.4°
Maximum altitude 01:25:49 89° 237° (WSW) 1,300 4.1 -14.8°
Drops below altitude 10° 01:34:30 10° 143° (SE) 3,497 6.2 -14.1°
Sets 01:37:32 0° 144° (SE) 4,514 6.7 -13.8°
